Atqasuk Edward Burnell Sr Mem, AK

2:07 AM AKST on December 15, 2019 (GMT -0900)
Atqasuk Edward Burnell Sr Mem

Weather History for PATQ - September, 2019

Change the Weather History Date:

Thursday, September 5, 2019

  Actual Average (WUND) Record (WUND)
Temperature  
Mean Temperature 50 °F -  
Max Temperature 60 °F - - (-1)
Min Temperature 41 °F - - (-1)
Degree Days  
Heating Degree Days 15    
Moisture  
Dew Point 43 °F    
Average Humidity 88    
Maximum Humidity 100    
Minimum Humidity 55    
Precipitation  
Precipitation 0.00 in - - ()
Sea Level Pressure  
Sea Level Pressure 29.95 in    
Wind  
Wind Speed 11 mph (SE)    
Max Wind Speed 20 mph    
Max Gust Speed 25 mph    
Visibility 6 miles    
Events Fog    
Averages and records for this station are not official NWS values.
T = Trace of Precipitation, MM = Missing Value Source: NWS Daily Summary

Daily Weather History Graph

Daily Weather History Graph

Search for Another Location

Airport or City:

Astronomy

Sep. 05, 2019 Rise Set
Actual Time 6:59 AM AKDT 9:54 PM AKDT
Civil Twilight 5:46 AM AKDT 11:06 PM AKDT
Nautical Twilight 3:30 AM AKDT 1:12 AM AKDT
Astronomical Twilight Sun does not rise Sun does not rise
Moon No Moon Rise No Moon Set
Length of Visible Light 17h 20m
Length of Day
14h 54m
Waxing Crescent, 47% of the Moon is Illuminated
Sep 5
Waxing Crescent
Sep 5
First Quarter
Sep 13
Full
Sep 21
Last Quarter
Sep 28
New

Hourly Weather History & Observations

Time (AKDT) Temp. Windchill Dew Point Humidity Pressure Visibility Wind Dir Wind Speed Gust Speed Precip Events Conditions
12:30 AM 42.8 °F 37.0 °F 42.8 °F 100% 29.94 in 7.0 mi East 10.4 mph - N/A   Scattered Clouds
12:41 AM 42.8 °F 37.5 °F 42.8 °F 100% 29.94 in 2.5 mi East 9.2 mph - N/A   Mostly Cloudy
12:44 AM 42.8 °F 37.0 °F 42.8 °F 100% 29.94 in 1.8 mi East 10.4 mph - N/A   Mostly Cloudy
12:50 AM 42.8 °F 36.6 °F 42.8 °F 100% 29.94 in 0.8 mi East 11.5 mph - N/A   Mostly Cloudy
1:19 AM 44.6 °F 39.7 °F 44.6 °F 100% 29.94 in 0.5 mi ESE 9.2 mph - N/A Fog Fog
1:56 AM 43.0 °F 38.8 °F 42.1 °F 97% 29.96 in 0.5 mi East 6.9 mph - N/A Fog Fog
2:26 AM 42.8 °F 37.0 °F 42.8 °F 100% 29.94 in 0.8 mi ESE 10.4 mph - N/A   Overcast
2:32 AM 42.8 °F 37.0 °F 42.8 °F 100% 29.94 in 1.2 mi East 10.4 mph - N/A   Overcast
2:46 AM 42.8 °F 37.5 °F 41.0 °F 93% 29.94 in 1.0 mi ESE 9.2 mph - N/A   Overcast
3:07 AM 42.8 °F 37.5 °F 41.0 °F 93% 29.94 in 1.0 mi ESE 9.2 mph - N/A   Overcast
3:14 AM 42.8 °F 37.0 °F 41.0 °F 93% 29.94 in 0.8 mi ESE 10.4 mph - N/A   Overcast
4:32 AM 41.0 °F 35.8 °F 41.0 °F 100% 29.93 in 1.0 mi ESE 8.1 mph - N/A   Overcast
4:56 AM 41.0 °F 35.2 °F 41.0 °F 100% 29.96 in 3.0 mi ESE 9.2 mph - N/A   Mostly Cloudy
5:08 AM 41.0 °F 35.2 °F 41.0 °F 100% 29.93 in 10.0 mi ESE 9.2 mph - N/A   Scattered Clouds
5:56 AM 41.0 °F 34.3 °F 41.0 °F 100% 29.96 in 10.0 mi SE 11.5 mph - N/A   Clear
7:56 AM 41.0 °F 34.3 °F 39.0 °F 93% 29.96 in 10.0 mi SE 11.5 mph - N/A   Clear
8:56 AM 45.0 °F 38.9 °F 42.1 °F 90% 29.96 in 10.0 mi SSE 12.7 mph - N/A   Overcast
10:56 AM 50.0 °F - 45.0 °F 83% 29.96 in 10.0 mi SSE 13.8 mph - N/A   Partly Cloudy
11:56 AM 54.0 °F - 46.0 °F 75% 29.97 in 10.0 mi South 16.1 mph - N/A   Clear
1:56 PM 57.0 °F - 46.9 °F 69% 29.98 in 10.0 mi South 17.3 mph 23.0 mph N/A   Overcast
3:56 PM 59.0 °F - 43.0 °F 55% 29.98 in 10.0 mi SSW 19.6 mph 25.3 mph N/A   Mostly Cloudy
4:56 PM 57.9 °F - 42.1 °F 56% 29.98 in 10.0 mi SSW 18.4 mph - N/A   Clear
6:56 PM 55.9 °F - 43.0 °F 62% 29.98 in 10.0 mi South 12.7 mph - N/A   Clear
8:56 PM 54.0 °F - 45.0 °F 72% 29.96 in 10.0 mi South 10.4 mph - N/A   Overcast
9:56 PM 52.0 °F - 44.1 °F 74% 29.96 in 10.0 mi SE 11.5 mph - N/A   Overcast
10:56 PM 51.1 °F - 45.0 °F 80% 29.96 in 10.0 mi SE 11.5 mph - 0.00 in   Overcast